Regional Weather Roundup
Issued by NWS Albany, NY

Home | Current Version | Previous Version | Text Only | Print | Product List | Glossary On
Versions: 1 2 3 4 5 6 7 8 9 10 11 12 13 14 15 16 17 18 19 20 21 22 23 24 25 26 27 28 29 30 31 32 33 34 35 36 37 38 39 40 41 42 43 44 45 46 47 48 49 50
960
ASUS41 KALY 221210
RWRALY

NEW YORK STATE HOURLY WEATHER ROUNDUP
NATIONAL WEATHER SERVICE ALBANY NY
800 AM EDT FRI SEP 22 2017

NOTE: "FAIR" INDICATES FEW OR NO CLOUDS BELOW 12,000 FEET WITH NO
SIGNIFICANT WEATHER AND/OR NO OBSTRUCTIONS TO VISIBILITY.

NYZ032-033-038>043-046>054-057>066-NYZ062>081-082-084-221300-
EAST


CITY           SKY/WX    TMP DP  RH WIND       PRES   REMARKS
ALBANY         CLOUDY    58  53  84 N3        30.12R
GLENS FALLS    CLOUDY    56  53  90 E3        30.13R
POUGHKEEPSIE   MOSUNNY   63  55  75 N5        30.05R
NEWBURGH       MOSUNNY   63  55  77 NE9       30.07S
MONTGOMERY     PTSUNNY   60  58  92 SE3       30.06S
WHITE PLAINS   MOSUNNY   65  47  52 N15       30.01S
ISLIP          PTSUNNY   68  51  54 N18G28    29.96S
NEW YORK CITY  PTSUNNY   68  51  54 N13G23    30.01R
CENTRAL PARK   SUNNY     66  50  56 CALM      30.05R
$$

NYZ005>009-017-018-044>046-055-056-221300-
CENTRAL


CITY           SKY/WX    TMP DP  RH WIND       PRES   REMARKS
FULTON         MOSUNNY   55  54  96 CALM      30.13S FOG
SYRACUSE       CLOUDY    56  56 100 CALM      30.12R
ROME           CLOUDY    52  51  97 CALM      30.15R
ELMIRA         FOG       59  59 100 SW6       30.14R VSB 1/4
BINGHAMTON     CLOUDY    60  53  77 N7        30.14R
MONTICELLO     MOSUNNY   59  54  83 NW5       30.11R
$$

NYZ026>034-041>043-087-221300-
NORTH


CITY           SKY/WX    TMP DP  RH WIND       PRES   REMARKS
WATERTOWN      CLOUDY    54  53  97 NE3       30.14R
FORT DRUM      NOT AVBL
OGDENSBURG     FAIR      55  54  98 CALM      30.17R
MASSENA        SUNNY     53  52  96 CALM      30.18R
SARANAC LAKE   CLOUDY    44  44 100 CALM      30.17R
PLATTSBURGH    CLOUDY    50  49  96 CALM      30.16R
$$

NYZ001>004-010>016-019>021-085-221300-
WEST


CITY           SKY/WX    TMP DP  RH WIND       PRES   REMARKS
NIAGARA FALLS  CLOUDY    62  56  80 E5        30.15S
BUFFALO        MOCLDY    62  58  86 CALM      30.16R
DUNKIRK        CLOUDY    56  55  97 SE3       30.16R
JAMESTOWN      CLOUDY    57  57 100 CALM      30.19R
WELLSVILLE     FOG       54  52  93 CALM      30.19S VSB<1/4
ROCHESTER      CLOUDY    59  58  96 SW3       30.16R FOG
PENN YAN       FOG       60  58  92 CALM      30.15R VSB 1/4
$$

             KEY
       WCI = WIND CHILL INDEX
       VSB = VISIBILITY
       HX  = HEAT INDEX
$$




USA.gov is the U.S. government's official web portal to all federal, state and local government web resources and services.